Location: Dumbr?vi?a
(45.8833°N, 22.7000°E)
Time: 13:11:34
(UTC+00:00)

ATLAS 5 CENTAUR R/B - Pass Details

Date: 03 March 2021
Orbit: 254 x 14192 km, 60.8° (Epoch: 11 April)

Event Time Altitude Azimuth Distance (km) Brightness Sun altitude
Rises 17:18:32 0° 245° (WSW) 9,166 9.2 -11.2°
Reaches altitude 10° 17:27:46 10° 253° (WSW) 5,867 8.2 -12.8°
Maximum altitude 17:38:59 34° 315° (NW) 1,666 4.7 -14.8°
Drops below altitude 10° 17:42:45 10° 24° (NNE) 1,931 4.4 -15.4°
Enters shadow 17:43:31 - 31° (NNE) 2,193 4.6 -15.5°
